Opa Locka, FL

10:29 AM EDT on June 26, 2017 (GMT -0400)
Opa Locka

Weather History for KOPF - July, 2013

Change the Weather History Date:

Thursday, July 25, 2013

  Actual Average Record
Temperature  
Mean Temperature 84 °F -  
Max Temperature 93 °F 89 °F 95 °F (1983)
Min Temperature 75 °F 76 °F 69 °F (1948)
Cooling Degree Days 19    
Growing Degree Days 34 (Base 50)    
Moisture  
Dew Point 73 °F    
Average Humidity 68    
Maximum Humidity 88    
Minimum Humidity 50    
Precipitation  
Precipitation 0.00 in - - ()
Sea Level Pressure  
Sea Level Pressure 30.00 in    
Wind  
Wind Speed 7 mph (WSW)    
Max Wind Speed 14 mph    
Max Gust Speed 18 mph    
Visibility 10 miles    
Events      
Averages and records for this station are not official NWS values.
T = Trace of Precipitation, MM = Missing Value Source: NWS Daily Summary

Daily Weather History Graph

Daily Weather History Graph

Search for Another Location

Airport or City:

Trip Planner

Search our weather history database for the weather conditions in past years. The results will help you decide how hot, cold, wet, or windy it might be!

Date:

Astronomy

Jul. 25, 2013 Rise Set
Actual Time 6:43 AM EDT 8:11 PM EDT
Civil Twilight 6:18 AM EDT 8:36 PM EDT
Nautical Twilight 5:48 AM EDT 9:06 PM EDT
Astronomical Twilight 5:17 AM EDT 9:37 PM EDT
Moon 10:20 PM EDT (7/25) 9:45 AM EDT (7/25)
Length of Visible Light 14h 17m
Length of Day
13h 27m
Waning Gibbous, 88% of the Moon is Illuminated
Jul 25
Waning Gibbous
Jul 29
Last Quarter
Aug 6
New
Aug 14
First Quarter
Aug 20
Full

Hourly Weather History & Observations

Time (EDT) Temp. Heat Index Dew Point Humidity Pressure Visibility Wind Dir Wind Speed Gust Speed Precip Events Conditions
12:53 AM 82.0 °F 87.4 °F 73.0 °F 74% 29.99 in 10.0 mi West 5.8 mph - N/A   Clear
1:53 AM 80.1 °F 84.2 °F 73.0 °F 79% 29.97 in 10.0 mi West 5.8 mph - N/A   Clear
2:53 AM 79.0 °F - 73.0 °F 82% 29.96 in 10.0 mi West 4.6 mph - N/A   Clear
3:53 AM 77.0 °F - 73.0 °F 88% 29.95 in 10.0 mi West 3.5 mph - N/A   Clear
4:53 AM 77.0 °F - 73.0 °F 88% 29.94 in 10.0 mi WSW 3.5 mph - N/A   Clear
5:53 AM 75.9 °F - 72.0 °F 87% 29.95 in 10.0 mi South 4.6 mph - N/A   Clear
6:53 AM 77.0 °F - 73.0 °F 88% 29.97 in 10.0 mi SSW 3.5 mph - N/A   Clear
7:53 AM 81.0 °F 86.7 °F 75.0 °F 82% 29.99 in 10.0 mi SW 3.5 mph - N/A   Clear
8:53 AM 84.0 °F 91.2 °F 73.9 °F 72% 30.00 in 10.0 mi West 6.9 mph - N/A   Clear
9:53 AM 86.0 °F 92.2 °F 72.0 °F 63% 30.01 in 10.0 mi SW 9.2 mph - N/A   Partly Cloudy
10:53 AM 88.0 °F 93.8 °F 71.1 °F 57% 30.03 in 10.0 mi West 11.5 mph - N/A   Partly Cloudy
11:53 AM 89.1 °F 95.0 °F 71.1 °F 55% 30.04 in 10.0 mi West 9.2 mph 16.1 mph N/A   Scattered Clouds
12:53 PM 91.0 °F 97.6 °F 71.1 °F 52% 30.04 in 10.0 mi West 11.5 mph - N/A   Scattered Clouds
1:53 PM 91.0 °F 96.6 °F 70.0 °F 50% 30.02 in 10.0 mi West 8.1 mph 18.4 mph N/A   Scattered Clouds
2:53 PM 91.9 °F 98.4 °F 71.1 °F 50% 30.01 in 10.0 mi WSW 13.8 mph 17.3 mph N/A   Scattered Clouds
3:53 PM 91.9 °F 98.4 °F 71.1 °F 50% 30.00 in 10.0 mi WNW 6.9 mph - N/A   Partly Cloudy
4:53 PM 93.0 °F 100.7 °F 72.0 °F 50% 29.99 in 10.0 mi WNW 9.2 mph 17.3 mph N/A   Partly Cloudy
5:53 PM 91.9 °F 100.7 °F 73.0 °F 54% 29.99 in 10.0 mi WSW 10.4 mph - N/A   Scattered Clouds
6:53 PM 90.0 °F 100.2 °F 75.0 °F 61% 30.00 in 10.0 mi West 13.8 mph - N/A   Clear
7:53 PM 88.0 °F 97.5 °F 75.0 °F 65% 30.01 in 10.0 mi WSW 13.8 mph - N/A   Clear
8:53 PM 86.0 °F 96.0 °F 75.9 °F 72% 30.01 in 10.0 mi WSW 10.4 mph - N/A   Clear
9:53 PM 84.9 °F 93.3 °F 75.0 °F 72% 30.03 in 10.0 mi West 11.5 mph - N/A   Clear
10:53 PM 84.0 °F 91.9 °F 75.0 °F 74% 30.04 in 10.0 mi WSW 10.4 mph - N/A   Scattered Clouds
11:53 PM 82.9 °F 90.2 °F 75.0 °F 77% 30.04 in 10.0 mi West 10.4 mph - N/A   Clear